星链-1912 (STARLINK-1912 )

导读 | 星芒AI

STARLINK-1912 是 SpaceX Starlink 卫星互联网项目中的第 1912 颗卫星,属于低轨通信卫星群,旨在为全球用户提供高速互联网服务。该卫星于 2023 年发射,运行在约 550 公里的轨道高度,采用先进通信技术,支持宽带数据传输。Starlink 项目致力于改善偏远地区网络覆盖,提升全球互联网接入能力。

基本信息
目录编号:
47178
目录名称:
STARLINK-1912
国际标识:
2020-088BJ
轨道中心:
EARTH
卫星名称:
星链-1912
卫星全名:
星链-1912 (STARLINK-1912 )
卫星状态:
在轨 (已飞行1799 天)
发射日期:
2020-11-25 UTC
国别 :
美国 (US)
星等 :
--
轨道信息
数据来源 国际轨道数据
星历时间: 2025-10-28T06:11:59+0800
1天前
查看轨道信息
半长轴: 6925.34km
偏心率: 0.000142
轨道倾角: 53.052°
近地点辐角 79.570°
升交点赤经 177.621°
平近点角 280.545°
近地点: 546.221km
远地点: 548.189km
周期: 95.592分钟
每日圈数: 15.06403
详细信息
固有亮度:
5
最大亮度:
2.5
卫星平台:
Starlink V1.0
覆盖范围:
全球
运营商:
太空探索技术公司
运营商所在国:
美国
制造商(研发单位):
太空探索技术公司
制造商所在国:
美国
使用方式:
暂无
卫星简介
星链(Starlink)计划是由太空探索技术公司(SpaceX)提出的一个巨型低轨卫星互联网星座项目,计划在2019年至2024年间在太空搭建由约1.2万颗卫星组成的“星链”网络,其中1584颗将部署在地球上空550千米处的近地轨道,并从2020年开始工作。该卫星仍在工作。
2D轨道图
3D轨道图
轨道高度分析图
轨道倾角分析图
轨道综合分析图
查看轨道综合分析图